Dewpoint
22 23 25 22 22 22 19 17 16 14 15 17 19 17 19 14 16 17 18 19 19 18 15 12 12 11 12 13 10 11 12 13 13 15 16 13 16 16 17 18 15 18 18 19
18 20 19 18 19 20 21 20 18 19 18 17 14 10 11 11 15 17 18 19 19 15 9 8 7 11 12 13 9 11 10 11 11 12 13 17 16 15 14 16 16 14 16 17
13 15 15 10 14 17 17 18 18 14 15 4 5 8 5 6 13 17 18 17 15 10 8 7 6 7 9 8 10 10 10 11 11 12 13 14 16 17 15 12 12 15 14 15
15 14 6 9 13 14 15 15 14 5 3 3 7 3 3 5 8 14 17 12 9 6 5 5 8 12 8 10 10 11 11 11 11 14 14 13 14 15 16 13 10 12 14 15
11 10 16 13 7 5 5 7 2 3 4 5 4 2 3 5 6 7 7 7 10 13 11 6 5 6 8 9 10 10 10 11 13 14 14 14 14 14 15 13 13 11 14 15
11 9 7 8 2 4 13 10 0 4 5 5 5 6 5 5 6 5 6 6 5 5 5 4 5 7 8 9 10 10 12 14 13 15 14 12 13 13 14 13 15 17 17 16
11 11 9 13 1 5 9 11 13 10 6 7 5 7 5 6 6 6 6 5 6 5 5 5 6 8 8 9 9 12 13 13 14 14 12 12 11 12 11 13 16 13 16 17
2 -2 -1 3 5 12 18 20 18 11 6 8 5 5 5 6 6 7 8 7 7 6 6 6 8 8 8 7 9 10 11 11 11 11 11 13 14 15 16 13 11 10 10 13
14 9 12 10 14 19 23 14 16 10 7 8 5 4 6 6 6 7 7 6 7 7 6 5 5 2 -1 6 8 7 7 7 8 10 11 14 14 14 14 12 9 9 12 12
19 18 19 17 21 22 20 20 19 12 9 8 7 6 7 6 6 6 6 6 7 6 6 6 6 7 3 5 8 4 4 7 10 9 11 13 12 14 14 10 9 12 13 14
17 20 20 21 21 22 22 19 16 12 11 11 11 8 8 7 7 6 6 7 7 5 4 5 7 6 7 9 4 6 9 9 10 10 10 11 12 10 11 12 12 12 14 17
15 21 19 18 21 21 18 19 19 18 18 17 17 10 8 7 7 6 -2 6 6 7 7 5 6 6 7 8 5 2 7 9 7 10 11 12 11 12 16 18 19 19 20 22
15 13 16 17 18 19 18 20 20 16 13 9 8 6 4 1 3 7 7 7 5 3 4 4 2 6 7 7 6 5 1 7 8 12 11 11 11 12 11 12 16 17 19 20
14 11 14 13 11 14 17 15 14 9 8 6 2 6 4 5 9 8 6 3 1 3 5 2 2 3 5 5 7 7 7 13 12 9 12 12 12 13 11 11 10 11 15 17
12 11 9 10 10 9 9 9 8 7 7 6 7 5 5 4 4 1 0 5 6 2 2 0 -4 1 1 6 7 4 7 7 8 12 14 13 10 10 11 11 11 11 12 14
8 9 10 9 8 7 6 4 3 5 4 3 6 4 0 -3 -2 -2 -3 -4 -5 -3 -4 -6 -1 -2 1 4 2 6 8 14 15 14 9 9 9 9 10 11 11 11 11 12
2 2 3 5 6 2 -1 -3 -3 -2 1 0 -1 0 2 3 3 -0 -1 -4 -9 -10 -9 -6 -3 -1 4 5 2 6 9 9 14 7 6 7 8 9 10 11 11 11 12 13
-1 -3 -3 -3 -0 -2 1 -0 -0 -1 -4 -5 -3 -0 -1 -2 -6 -8 -11 -11 -10 -6 -1 1 -5 -4 1 5 8 10 10 9 5 2 6 6 7 10 10 10 11 11 11 12
-3 -4 -5 -2 -2 -2 -4 -2 -4 -6 -7 -9 -6 -7 -12 -12 -15 -16 -21 -18 -16 -15 -6 -10 8 11 6 9 15 13 10 4 1 -1 0 7 4 5 7 9 9 10 11 10
4 2 3 2 4 -1 -1 -4 -7 -8 -12 -10 -10 -12 -12 -15 -20 -20 -23 -15 -12 -8 -13 -9 2 4 7 7 15 7 5 -4 -5 -2 -2 4 -2 -1 4 8 10 9 9 9
-1 2 6 5 -0 -0 -5 -8 -8 -10 -15 -16 -12 -14 -15 -18 -22 -22 -16 -13 -7 -12 -3 11 9 6 8 13 13 6 -3 -6 -6 -8 -9 -5 -4 -4 -1 2 5 7 8 8
-9 -4 -2 -2 -4 -6 -14 -15 -13 -15 -17 -19 -21 -19 -17 -13 -17 -17 -12 -9 -7 10 10 5 3 11 15 15 3 3 -4 -1 -1 -5 -7 -6 -3 -2 -0 1 2 4 6 7
-5 -6 -3 -3 -5 -7 -13 -14 -15 -14 -14 -16 -15 -16 -14 -13 -14 -7 -7 -8 -2 5 13 7 12 17 14 2 -4 -6 -4 0 -2 -4 -4 -3 -1 -1 1 2 3 6 6 6
-8 -6 -8 -10 -12 -4 -2 -6 -9 -10 -13 -12 -11 -11 -11 -10 -5 -7 -3 8 13 14 11 8 11 18 11 -2 -2 1 -0 -0 -2 -2 -1 8 1 2 3 5 5 6 7 9
-3 -2 -4 -4 -1 1 -1 -3 -7 -7 -5 -2 1 0 -0 -3 -4 -1 2 6 12 13 9 11 12 13 10 7 5 4 2 1 2 5 4 4 4 5 6 7 7 8 10 12
-0 1 1 1 3 5 5 4 4 5 5 5 6 7 6 4 3 7 7 10 10 10 8 8 8 11 9 9 9 6 6 6 5 5 8 7 6 6 7 8 8 8 9 10
2 7 2 3 3 4 7 7 6 6 8 7 7 9 8 8 8 9 9 6 6 8 8 8 7 8 10 10 7 7 7 6 8 9 8 6 6 7 7 7 8 8 9 10
Lifted_Index
2 1 1 1 1 1 1 1 1 1 2 2 3 4 4 4 5 5 5 6 6 7 8 10 11 12 13 13 13 14 15 15 16 17 18 19 19 19 19 19 19 19 19 19
2 1 1 1 1 1 1 1 1 1 1 2 3 3 4 4 5 5 5 6 7 8 9 10 11 12 12 13 13 14 15 15 16 17 18 19 19 19 19 19 19 19 19 19
2 1 1 1 1 1 1 1 1 1 1 2 2 3 4 5 5 6 6 7 7 8 9 10 11 12 13 13 14 15 16 16 17 18 18 18 18 18 18 18 18 18 18 18
1 1 1 1 1 1 1 1 1 1 2 2 3 3 4 5 6 7 7 8 8 9 10 11 12 12 13 14 15 16 16 17 17 17 17 17 17 18 18 18 18 18 18 18
1 1 1 1 1 1 1 1 1 2 2 2 3 4 5 6 7 8 9 9 10 10 11 12 12 13 14 15 16 16 17 17 17 17 17 17 17 17 18 18 18 17 18 18
1 1 1 1 1 1 1 1 1 2 2 3 3 4 5 7 8 9 10 11 11 11 12 13 14 15 15 15 16 16 17 17 18 18 18 17 17 17 17 17 17 17 16 16
1 1 1 1 1 1 1 1 1 2 3 3 4 5 6 8 9 11 12 12 12 13 13 14 15 15 16 16 16 17 18 18 18 18 18 17 17 16 16 16 15 14 14 14
1 1 1 1 1 1 1 2 2 3 3 4 5 6 8 9 10 12 13 13 14 14 14 15 16 16 16 17 17 18 18 18 18 18 17 16 15 14 14 13 13 12 11 11
2 2 2 2 2 2 2 3 3 4 4 5 6 7 9 10 11 12 13 14 15 15 15 16 17 17 17 18 18 18 18 18 17 16 15 14 13 12 12 11 10 10 9 9
3 3 3 3 3 3 4 4 5 5 6 7 8 9 10 11 12 13 14 14 15 16 16 16 17 18 18 18 18 18 17 17 16 15 14 13 12 11 10 9 9 9 8 8
4 4 4 5 5 5 6 6 6 7 8 8 9 10 11 12 13 14 14 15 15 16 16 16 17 18 18 18 18 17 16 15 14 13 12 11 11 10 9 9 9 9 8 8
6 6 6 7 7 7 7 8 8 8 9 9 10 11 12 13 13 14 15 15 15 16 16 17 17 18 18 18 17 16 14 13 13 12 11 10 10 9 9 9 9 9 9 9
7 7 8 9 9 9 9 9 9 10 10 11 11 12 13 13 14 14 15 15 16 16 16 17 17 17 17 17 16 14 13 12 12 11 10 10 9 8 8 8 8 8 8 8
8 9 9 10 10 10 10 11 11 11 11 12 12 13 13 14 14 15 15 15 16 16 16 17 17 17 17 16 15 13 12 12 11 11 10 9 9 8 8 8 8 8 8 8
9 9 10 10 10 11 12 12 12 12 12 13 13 13 14 14 14 15 15 16 16 16 16 16 16 16 16 15 13 13 12 11 11 10 10 9 9 9 8 8 8 7 8 8
10 10 10 10 11 12 12 12 13 13 13 14 14 14 14 15 15 15 15 16 16 16 16 16 16 16 15 14 13 12 12 11 11 10 10 9 9 9 8 8 8 7 7 8
10 10 10 11 11 12 12 13 13 13 14 14 14 14 15 15 15 15 15 16 16 16 16 16 16 15 14 13 12 12 12 11 11 10 10 9 9 9 8 8 8 8 8 8
11 11 11 11 12 12 12 13 13 14 14 14 14 15 15 15 15 15 15 15 16 16 16 16 15 14 13 12 12 12 12 11 11 10 10 9 9 9 9 8 8 8 8 8
11 12 12 12 12 13 13 13 14 14 14 15 15 15 15 15 15 15 15 15 15 15 16 16 15 14 13 12 12 12 12 11 11 10 10 9 9 9 9 8 8 8 8 8
11 12 12 12 13 13 13 14 14 14 14 15 15 15 15 15 15 15 15 15 15 16 16 16 15 14 13 12 12 12 12 11 11 10 10 10 9 9 9 9 9 8 8 8
11 12 12 12 13 13 14 14 14 14 14 15 15 15 15 15 15 15 15 15 16 16 16 16 15 14 12 12 12 12 12 11 10 10 10 10 9 9 9 9 9 9 9 9
11 12 12 12 13 13 14 14 14 14 15 15 15 15 15 15 15 15 15 16 16 17 17 16 15 13 12 12 12 12 12 11 10 10 10 10 10 9 9 9 9 9 9 9
12 12 12 13 13 13 14 14 14 15 15 15 15 15 15 15 15 15 16 16 17 17 17 16 15 13 12 12 12 12 12 11 10 10 10 10 10 10 9 9 9 9 9 8
12 12 12 13 13 13 14 14 14 15 15 15 15 15 15 15 16 16 16 17 17 17 17 16 15 13 12 12 12 12 11 11 10 10 10 10 10 10 10 9 9 9 8 8
12 12 12 13 13 13 13 14 14 14 15 15 15 16 16 16 16 17 17 17 18 17 17 15 14 13 12 12 12 11 11 10 10 10 10 10 10 10 10 9 9 8 8 7
12 12 12 13 13 13 14 14 14 14 14 15 15 15 16 16 17 17 17 18 18 17 16 15 14 13 12 11 11 11 10 10 10 10 10 10 10 9 9 9 8 8 7 7
12 12 12 13 13 13 14 14 14 14 14 14 15 15 16 17 17 17 18 18 18 17 16 15 13 12 12 11 11 10 10 10 10 10 10 10 10 9 9 9 8 8 7 6